Theta_e
320 322 325 327 338 343 345 346 346 349 348 344 343 345 344 344 347 350 346 346 343 342 341 339 339 338 332 320 333 338 339 339 339 338 335 327 325 325 325 325 326 328 328 328 329 330 331 331 334
322 324 326 326 343 338 341 337 348 347 345 344 344 344 344 345 343 340 346 347 343 342 341 340 338 337 338 328 320 327 332 334 336 335 334 327 326 326 326 326 326 326 327 327 327 327 329 330 329
322 325 326 331 336 340 339 342 345 342 343 344 344 343 343 344 339 343 343 348 344 342 341 338 335 333 335 336 325 321 323 327 330 331 330 327 327 327 327 327 327 327 327 327 327 326 327 327 326
322 323 325 336 338 334 337 342 342 343 343 344 344 343 341 337 337 340 342 345 344 343 339 334 329 328 333 338 331 322 324 325 326 327 328 329 328 327 327 327 328 328 328 329 328 328 327 327 327
321 321 331 335 332 331 332 341 341 343 344 345 346 345 344 336 344 345 348 346 345 342 337 332 330 331 334 339 335 328 323 323 324 327 328 329 329 328 327 326 325 327 329 329 330 331 330 328 328
319 318 331 333 331 327 330 339 341 343 342 347 350 344 338 341 346 343 342 344 344 340 336 333 333 333 336 339 337 334 327 323 323 324 324 325 325 325 325 324 325 326 330 330 331 331 330 330 329
320 321 320 320 325 330 327 334 337 336 347 348 345 343 344 339 340 338 339 342 341 341 337 334 333 334 336 339 339 338 336 331 325 324 324 325 325 325 325 325 325 326 328 330 330 330 329 329 329
316 319 318 319 325 327 322 321 327 342 337 343 328 332 344 346 343 341 341 336 340 341 338 336 334 333 336 340 340 339 339 338 335 332 329 327 327 328 328 329 328 328 329 329 330 330 330 330 330
316 322 323 322 323 325 319 324 326 326 330 325 325 325 332 343 339 336 336 336 334 334 341 338 337 334 332 333 333 333 333 333 333 332 332 331 331 331 330 330 330 331 331 332 332 332 332 332 332
318 323 321 319 320 322 320 321 320 324 324 324 325 326 334 344 341 337 335 335 334 334 339 341 339 338 337 340 341 342 341 341 340 340 340 340 339 339 337 335 334 333 332 332 332 333 334 335 336
316 322 319 319 319 318 319 319 318 323 325 324 327 326 330 343 342 340 338 336 335 333 339 344 342 341 342 344 343 340 340 323 327 335 341 337 344 346 345 342 341 339 338 337 336 335 336 340 341
321 318 319 319 319 318 320 318 319 319 319 321 324 326 327 336 339 336 338 339 334 335 339 344 344 342 343 345 343 332 320 318 318 319 323 329 341 345 346 347 346 345 344 341 339 339 339 340 342
321 318 317 317 317 317 318 318 318 317 318 321 324 325 327 331 333 334 339 339 337 337 343 344 344 345 344 344 332 321 317 316 316 316 316 322 332 341 345 345 341 343 343 344 342 340 341 340 341
318 318 318 317 317 317 319 318 319 318 317 320 327 332 337 338 338 338 336 333 341 344 342 344 340 344 339 328 319 316 316 316 315 314 314 314 315 318 330 338 339 338 340 341 338 338 334 340 339
318 320 321 319 317 318 318 319 320 319 318 318 317 320 326 333 334 334 339 340 343 345 339 342 343 335 323 317 316 315 314 314 313 313 314 316 316 316 317 317 316 323 332 334 336 336 335 333 335
320 319 322 320 319 318 318 320 320 319 321 322 322 321 319 317 326 340 340 337 341 343 336 334 333 321 316 316 315 314 314 314 314 314 315 316 316 316 316 316 317 317 316 316 322 330 332 333 331
320 322 321 320 318 319 321 320 319 319 321 323 323 324 323 319 315 320 335 339 338 342 332 326 321 316 317 315 315 314 315 315 315 315 315 314 314 313 313 314 315 316 317 319 320 321 324 330 331
321 321 320 321 320 319 321 321 320 320 321 322 323 324 325 325 321 316 316 324 331 337 329 324 318 317 316 315 315 315 314 314 313 313 315 315 313 312 312 312 313 313 314 317 320 323 326 327 329
319 321 321 319 318 319 321 321 320 320 320 321 322 324 325 325 324 323 321 323 325 327 326 319 317 316 315 315 315 315 315 314 314 316 318 318 316 315 314 311 311 312 312 313 315 321 327 328 329
320 320 320 319 318 318 320 320 320 319 319 319 321 322 323 325 325 325 325 325 325 324 320 318 317 316 315 316 317 318 319 319 319 319 318 318 317 316 316 316 314 313 312 311 312 313 320 327 332
319 320 320 320 318 317 320 320 319 319 319 319 319 320 321 322 323 323 324 323 323 322 321 320 320 320 319 319 319 320 320 319 318 317 316 316 316 317 317 316 315 314 313 312 311 311 311 317 324
320 317 318 319 319 321 316 321 319 319 320 320 320 319 318 319 320 321 322 322 322 323 323 324 323 323 322 321 320 320 321 321 320 319 316 316 317 318 317 317 316 314 313 311 309 310 310 310 313
319 316 317 317 319 318 318 319 319 318 320 320 319 319 319 317 317 317 317 318 319 320 320 322 323 323 322 322 321 321 321 319 318 316 316 316 316 318 318 317 316 315 314 312 310 308 309 309 309
314 316 315 314 317 318 318 319 319 320 320 319 319 319 319 318 317 317 315 314 314 315 316 317 318 319 321 321 318 315 314 312 313 314 314 315 316 316 318 316 315 315 314 313 312 309 308 308 308
318 317 316 316 316 314 317 318 318 318 318 318 319 316 315 316 315 315 314 313 313 312 312 312 312 312 312 313 313 312 309 308 307 308 311 313 314 316 316 318 315 314 314 313 312 311 310 310 310
316 318 316 314 315 315 317 317 320 316 314 315 316 315 314 314 313 312 312 311 311 310 309 309 310 310 310 310 310 309 308 308 306 306 307 309 311 315 317 318 316 314 314 313 313 312 311 311 310
317 318 314 319 316 318 317 318 317 316 316 315 315 315 314 312 312 311 311 311 311 309 308 308 309 309 309 309 308 308 308 308 307 305 307 307 310 313 318 318 316 315 314 313 313 312 311 311 311
317 314 318 318 320 314 315 317 317 318 317 315 315 314 313 312 312 311 311 310 309 309 307 307 306 308 308 308 309 309 308 307 306 305 306 308 310 311 316 316 315 314 312 311 311 310 309 309 310
317 316 316 316 318 318 315 314 317 317 316 316 315 313 313 312 310 310 310 309 309 308 308 308 308 308 308 309 308 307 306 306 306 306 306 306 307 309 309 309 309 308 308 308 308 308 308 308 309
316 317 316 319 316 317 318 316 315 316 315 314 314 313 310 310 309 309 309 308 308 309 308 308 308 308 308 307 306 305 304 305 305 306 306 307 308 309 309 308 308 307 307 307 307 307 307 307 308
Wind_Speed
5 5 3 3 2 4 4 4 1 5 4 3 6 1 1 3 2 3 11 16 16 16 15 11 10 11 12 14 17 17 16 15 13 10 10 10 10 10 9 9 8 8 8 8 7 6 7 8 8
5 4 3 2 4 7 4 1 5 5 4 7 3 3 2 1 2 3 11 14 17 15 15 12 10 10 11 11 13 15 14 13 12 11 10 10 10 9 8 7 6 5 5 5 5 4 4 5 5
3 4 1 2 3 5 6 3 2 3 7 5 4 2 1 2 2 11 4 11 13 14 13 12 10 11 12 11 10 12 12 12 12 11 11 11 9 7 7 6 5 4 3 3 2 1 1 2 2
1 2 4 4 10 3 4 8 7 10 6 5 3 2 2 4 12 8 8 13 15 12 11 8 8 11 14 13 11 10 10 11 11 11 10 9 8 7 6 5 4 4 4 3 2 2 2 3 2
4 3 3 7 4 1 2 4 13 8 4 7 9 5 3 12 6 10 14 14 11 12 12 11 11 13 16 14 12 11 11 12 11 11 10 8 7 6 6 6 6 5 6 5 5 4 5 5 6
3 2 6 7 5 3 0 7 4 4 2 6 4 7 7 9 11 14 12 10 8 9 9 8 9 10 13 14 12 10 10 10 9 11 10 10 9 8 8 7 8 7 7 7 7 7 7 7 9
5 3 3 4 6 5 1 6 5 5 5 6 6 6 2 14 15 15 8 9 5 6 8 10 11 14 12 10 11 9 8 7 8 9 9 10 10 9 9 9 9 9 9 9 10 10 10 10 10
5 4 5 2 7 5 2 3 5 7 3 10 2 1 2 9 19 14 10 7 6 7 5 4 6 9 10 11 9 7 6 5 6 7 8 8 9 9 9 10 10 11 11 11 12 13 12 12 12
3 3 6 4 9 5 1 5 5 2 6 3 4 2 3 13 12 11 12 12 6 4 6 5 6 7 8 8 7 6 6 5 5 5 6 7 8 9 10 10 11 11 12 13 14 14 15 14 15
4 5 3 2 1 2 1 3 3 4 5 3 6 6 9 17 12 10 9 17 12 9 7 8 6 7 8 8 7 5 2 1 2 4 6 7 8 8 9 10 10 10 11 12 13 14 14 15 15
2 5 3 2 3 2 2 3 2 8 5 6 9 10 11 19 15 10 12 14 15 13 8 8 9 10 9 8 5 4 3 1 3 7 10 13 14 14 13 12 11 11 10 10 11 11 12 12 12
7 3 2 2 1 2 3 3 5 6 11 10 8 9 11 16 17 13 12 12 11 11 12 9 10 13 12 12 10 8 6 5 6 8 11 14 16 18 17 17 16 15 12 13 12 11 11 12 13
7 4 6 2 3 3 5 11 6 19 17 5 11 10 12 15 16 15 15 16 17 17 17 14 14 14 14 14 12 9 7 6 6 8 11 14 15 14 15 17 17 19 18 17 16 16 15 14 14
6 12 9 6 4 6 9 15 5 19 15 4 5 8 10 15 18 20 21 19 19 18 14 16 15 16 14 12 9 6 3 5 8 11 12 12 12 15 17 16 16 18 19 20 22 21 20 20 19
9 11 13 16 8 5 7 9 12 19 12 9 4 7 14 20 22 25 22 22 21 21 16 16 16 14 10 6 5 2 3 7 9 10 11 10 8 9 10 11 14 18 19 19 21 23 24 24 23
4 2 3 9 9 6 5 5 13 18 16 16 13 9 11 18 25 26 27 27 26 22 20 16 12 10 8 6 3 1 2 3 5 6 8 9 9 8 8 8 10 12 14 18 20 22 22 23 24
4 5 6 2 10 3 6 4 13 13 13 16 17 18 16 11 11 19 26 30 29 25 19 14 11 9 8 5 4 3 4 5 5 6 7 9 10 11 10 8 7 9 11 13 14 16 22 23 23
3 4 4 3 6 10 11 7 9 14 14 16 16 17 20 20 15 9 11 20 22 19 18 12 12 11 8 7 5 5 4 4 3 2 4 7 8 10 12 12 11 10 8 10 12 13 16 21 21
5 5 4 2 3 3 8 8 9 12 18 19 18 17 18 18 18 16 10 7 10 13 14 13 12 10 9 8 5 3 1 0 1 6 9 9 10 11 12 12 13 14 14 13 12 13 14 15 19
4 4 3 1 3 1 4 8 8 13 14 13 14 15 15 15 16 16 14 8 2 8 10 11 10 9 8 5 5 3 2 4 7 11 13 14 14 17 17 16 15 16 17 17 17 15 14 15 16
5 3 1 2 2 5 8 5 4 5 8 10 14 14 15 15 14 12 10 8 7 3 1 3 5 7 9 11 11 12 13 14 15 16 18 17 18 20 19 17 16 16 16 17 19 18 16 16 17
2 2 3 5 3 6 2 4 4 4 4 8 10 11 13 14 13 14 13 10 10 7 4 6 9 12 14 16 17 18 18 21 21 26 26 25 21 20 18 18 17 16 14 14 16 18 19 17 17
2 3 2 3 6 2 2 4 6 6 3 3 5 9 11 12 12 11 9 7 9 10 12 12 14 15 16 16 18 21 25 29 32 31 31 29 27 24 23 21 18 17 15 14 13 15 17 19 20
3 1 2 2 1 4 4 3 6 5 3 2 2 6 9 9 10 9 9 9 9 10 12 15 18 19 20 22 24 23 24 25 28 29 34 33 36 34 29 24 22 18 16 16 15 14 15 17 19
7 4 2 2 2 3 3 6 3 3 2 1 1 3 6 7 7 9 11 13 16 18 20 20 21 21 21 23 24 23 23 25 28 28 29 31 29 31 31 30 26 23 20 19 19 17 16 20 22
4 3 1 4 3 7 5 5 2 4 4 4 2 2 4 8 10 11 14 18 20 26 27 29 31 33 32 31 33 33 33 33 35 33 33 33 32 32 30 30 31 29 25 23 22 22 21 23 26
2 2 2 0 1 3 1 1 5 6 3 4 4 5 10 14 17 18 19 21 25 27 27 28 30 32 32 34 37 40 42 44 45 41 39 35 32 32 32 30 31 28 25 23 24 25 26 27 29
4 5 0 2 3 6 3 4 7 8 4 2 5 8 11 17 21 22 24 24 24 25 27 29 31 33 35 36 39 41 48 51 51 43 42 38 33 30 29 29 28 26 27 27 27 29 30 30 32
3 2 3 1 2 3 6 3 1 4 3 5 12 12 18 23 26 27 27 24 25 27 30 30 30 30 30 30 31 36 42 43 36 36 40 40 40 33 34 29 30 32 32 32 32 33 34 34 36
1 2 2 1 1 4 5 8 1 5 3 7 10 16 22 24 27 28 28 28 30 32 33 33 33 32 30 32 35 36 36 33 33 33 31 31 30 29 30 31 31 35 36 35 36 36 37 37 40
Wind_Direction
6 10 54 54 87 85 80 72 42 154 190 195 150 228 325 234 299 54 154 144 151 157 156 154 148 141 133 148 162 162 162 166 169 169 162 151 145 143 139 133 129 126 119 113 102 87 78 71 70
4 63 110 83 89 112 87 23 170 167 150 142 197 294 255 309 252 139 147 161 160 161 158 155 160 156 144 140 157 171 173 175 178 177 171 163 154 150 149 147 146 141 131 122 111 97 82 71 64
14 90 69 77 142 144 123 192 133 134 151 179 183 233 290 276 204 145 126 160 161 165 156 158 168 164 154 146 146 161 174 178 181 180 177 171 164 162 167 171 170 172 167 157 139 106 64 67 52
105 82 64 130 119 129 101 145 148 140 154 177 185 225 238 175 139 177 175 170 163 160 153 160 167 157 153 148 143 151 163 170 175 179 181 182 179 183 195 202 206 208 221 220 220 243 284 304 309
125 81 90 119 112 280 65 131 169 173 167 176 173 167 182 154 185 168 161 160 160 168 157 161 157 156 152 151 149 152 164 169 174 179 186 198 206 213 226 238 243 246 242 246 259 267 276 283 288
80 77 127 151 149 285 120 142 188 233 219 179 189 165 150 164 173 150 147 141 154 179 154 140 144 145 149 157 151 155 161 170 183 191 194 206 218 224 233 245 251 253 255 254 261 272 279 283 285
97 87 123 149 160 211 267 142 176 238 171 187 155 178 208 175 174 158 148 154 171 185 163 161 149 136 146 163 164 162 159 166 184 197 206 215 223 231 237 243 251 258 261 262 264 268 273 279 280
101 100 136 150 182 195 109 105 153 176 132 150 148 274 151 177 202 209 199 129 143 173 150 133 118 124 143 157 166 168 177 181 197 208 219 225 232 239 246 252 257 262 263 265 269 273 275 275 278
87 94 117 133 174 157 132 133 158 190 148 203 225 296 195 185 190 195 195 180 160 146 182 177 145 142 146 155 156 170 173 190 215 222 230 240 247 251 252 253 254 259 264 270 270 270 273 275 273
48 99 115 147 152 181 110 76 133 166 157 251 244 220 184 188 195 203 207 198 223 227 211 199 188 184 175 160 160 138 141 158 256 257 257 263 260 258 261 260 262 264 268 271 276 281 280 277 276
40 90 146 114 127 124 74 90 106 143 199 210 199 195 191 196 197 202 218 228 234 237 240 211 204 204 192 176 175 210 196 345 304 280 275 280 271 265 261 258 259 261 267 275 284 291 288 281 281
103 84 57 110 147 185 141 102 91 30 328 293 217 198 192 195 205 208 210 224 208 211 227 218 206 207 210 203 217 196 214 247 265 278 273 270 260 259 262 265 266 262 261 269 277 283 281 274 277
81 51 44 22 21 75 73 49 64 29 355 267 227 220 209 209 213 216 209 212 215 211 220 222 209 207 201 207 205 211 235 258 276 281 275 268 268 267 260 258 263 267 266 264 270 276 278 277 278
81 84 56 18 327 51 81 40 42 354 357 323 268 256 244 231 228 226 217 215 220 220 219 216 210 199 198 198 207 220 260 311 327 321 318 308 287 276 277 278 274 271 269 264 265 266 274 276 278
136 94 59 26 351 76 134 48 10 346 15 41 344 275 267 258 243 234 232 239 235 231 224 212 199 196 193 201 210 234 322 330 323 323 321 323 319 311 305 297 286 279 279 279 275 269 269 268 273
108 80 101 17 3 43 196 105 28 2 16 31 19 347 305 272 248 252 242 242 240 240 228 215 203 195 190 201 226 282 295 290 299 308 313 322 327 327 317 314 312 305 293 280 279 275 270 269 271
39 110 105 102 24 334 26 86 22 28 38 42 28 17 8 336 261 248 255 256 253 246 224 213 203 198 196 201 208 233 268 289 308 309 304 307 310 313 316 314 312 310 311 311 299 286 277 268 268
97 114 89 98 18 76 79 74 32 38 61 54 39 33 28 23 10 305 273 250 249 239 220 213 205 198 193 197 210 236 247 257 270 312 7 3 343 335 323 317 318 317 309 300 297 290 281 272 269
111 108 115 154 56 99 94 89 45 35 49 49 48 36 31 30 21 11 336 304 257 229 207 200 198 196 200 201 208 190 191 258 317 333 329 329 331 336 333 328 322 318 314 308 303 293 284 279 275
96 109 58 249 28 153 159 96 62 47 47 46 48 45 38 34 33 34 33 39 121 188 193 200 207 216 218 227 216 209 304 315 312 311 315 313 312 318 319 312 308 316 320 313 310 305 299 284 277
61 89 160 280 4 86 149 157 125 66 58 55 53 56 49 41 35 41 57 73 69 78 159 259 284 290 279 272 268 274 281 292 295 304 310 308 305 306 307 306 307 312 312 310 310 309 304 300 285
235 343 290 279 250 282 232 289 169 124 82 55 42 43 43 41 41 41 41 33 16 358 304 271 263 269 263 262 265 270 276 283 290 294 298 302 299 291 287 291 297 310 319 321 316 305 304 301 296
53 342 324 302 244 273 163 248 138 192 146 73 34 35 32 31 26 24 23 8 353 335 324 310 296 290 283 281 284 289 290 292 291 289 289 288 292 285 277 277 278 286 305 317 318 309 303 305 299
310 210 80 87 189 239 129 324 177 189 179 156 36 25 17 13 10 10 14 7 351 327 312 302 296 294 286 279 281 289 295 301 301 300 298 294 291 287 276 267 266 270 280 293 304 304 310 315 310
21 352 331 207 226 308 141 281 4 148 87 30 38 31 24 20 8 359 352 348 337 327 317 309 301 294 290 284 279 277 284 299 301 301 300 299 295 289 283 266 260 264 269 279 287 295 303 311 313
39 4 309 293 285 308 280 256 117 111 84 73 85 30 15 356 344 334 326 321 322 316 306 300 296 293 292 287 283 287 294 301 308 300 295 292 293 288 280 264 260 264 265 270 277 286 297 303 308
87 74 15 242 237 264 241 194 199 176 91 51 14 333 337 338 326 320 319 317 319 320 318 317 304 296 291 286 289 292 293 294 298 296 289 288 286 283 275 259 256 256 256 263 271 279 286 293 300
67 122 207 35 305 295 239 268 287 202 234 266 299 316 324 325 323 319 319 317 320 317 315 312 306 300 300 294 286 290 293 294 296 290 281 280 281 283 272 262 257 256 259 266 274 281 288 291 294
144 125 77 358 256 278 304 300 147 267 195 337 330 321 322 324 322 320 317 314 314 313 312 308 305 300 295 293 293 296 296 294 290 285 283 280 277 269 268 265 265 266 270 274 278 282 286 291 296
249 149 121 167 231 246 282 289 31 170 159 328 310 320 321 320 318 317 316 315 316 313 310 308 305 301 297 294 295 296 296 292 290 291 287 282 273 260 266 269 269 272 275 277 277 278 283 288 292